Regional Weather Roundup
Issued by NWS Sioux Falls, SD

Home | Current Version | Previous Version | Graphics & Text | Print | Product List | Glossary Off
Versions: 1 2 3 4 5 6 7 8 9 10 11 12 13 14 15 16 17 18 19 20 21 22 23 24 25 26 27 28 29 30 31 32 33 34 35 36 37 38 39 40 41 42 43 44 45 46 47 48 49 50

000
ASUS43 KFSD 272010
RWRFSD

WEATHER ROUNDUP FOR SE SOUTH DAKOTA/SW MINNESOTA/NW IOWA
NATIONAL WEATHER SERVICE SIOUX FALLS SD
300 PM CDT WED MAY 27 2015

NOTE: "FAIR" INDICATES FEW OR NO CLOUDS BELOW 12,000 FEET WITH NO
SIGNIFICANT WEATHER AND OR OBSTRUCTIONS TO VISIBILITY.


SDZ038>040-050-052>070-272100-
SOUTHEAST SOUTH DAKOTA

CITY           SKY/WX    TMP DP  RH WIND       PRES   REMARKS
BROOKINGS      MOSUNNY   81  48  32 N5        30.01S
CHAMBERLAIN    CLOUDY    78  50  38 S12G21    30.02S
HURON          PTSUNNY   80  48  32 S8        29.99S
MADISON        LGT RAIN  81  46  30 W7        30.02S
MITCHELL       SUNNY     81  48  31 SW6       30.01S
SIOUX FALLS    MOSUNNY   82  52  35 SW8       30.01S
WINNER         MOCLDY    81  46  29 S20G30    30.02F
YANKTON        SUNNY     81  52  36 W3        30.01S
$$

MNZ071-072-080-081-089-090-097-098-272100-
SOUTHWEST MINNESOTA

CITY           SKY/WX    TMP DP  RH WIND       PRES   REMARKS
FAIRMONT       SUNNY     82  50  32 SW9G16    30.00S
JACKSON        SUNNY     82  50  32 NW12      30.02S
LUVERNE        MOSUNNY   84  46  26 W10       30.02S
MARSHALL       SUNNY     82  46  28 N8        29.98F
MONTEVIDEO     SUNNY     84  48  28 NW9       29.98S
REDWOOD FALLS  SUNNY     84  52  33 VRB3      29.97S
TRACY          SUNNY     85  46  25 NW5       30.00S
WINDOM         SUNNY     82  52  34 CALM      30.01S
WORTHINGTON    MOSUNNY   81  46  30 W8        30.02R
$$

IAZ001>003-012>014-020>022-031-032-NEZ013-014-SDZ071-272100-
NORTHWEST IOWA

CITY           SKY/WX    TMP DP  RH WIND       PRES   REMARKS
CHEROKEE       SUNNY     81  56  42 NW5       30.03S
DENISON        SUNNY     81  57  44 VRB7      30.03S
ESTHERVILLE    SUNNY     81  52  36 NW12      30.01S
LE MARS        SUNNY     82  50  32 SW5       30.03S
ORANGE CITY    SUNNY     81  48  32 CALM      30.03S
SHELDON        SUNNY     82  73  74 VRB5G12   30.01F
SIOUX CITY     SUNNY     83  51  33 S9        30.03S
SPENCER        SUNNY     83  54  36 W10       30.02S
STORM LAKE     SUNNY     81  52  36 W10G17    30.05S
$$

ABBREVIATIONS USED IN REMARKS
   TC - TEMPERATURE IN CELSIUS
  WCI - WIND CHILL INDEX
   HX - HEAT INDEX
  VSB - VISIBILITY




USA.gov is the U.S. government's official web portal to all federal, state and local government web resources and services.